“In life, you're either a passenger or a pilot. It’s your choice.”

WELCOME TO YOUR AVIATION DREAM!

What's new Up There Icon

WHAT’S NEW HERE?

4000+ aviation terms, acronyms and definitions!
Make your study a little easier with the aviation glossaries that gather over 4000 terms and acronyms extracted from weather, communications, technical and more general topics…
Partnership Icon

PARTNESHIP ANNOUNCEMENT

I am proud to announce a partnership with nizul Logo, study partner of every pilot who wants to consolidate their ground school knowledge and master their written examination.

Try Me Icon

ALL YOURS FOR 30 MINUTES!

Not sure you’d get along with a freelance instructor? How about giving it a try with a 30 minute flight?
My treat! All free.

Resources Tool Box

STUDENT RESOURCES

As a registered student training with me, you get access to a whole lot of files, tools, documents, aviation glossaries, videos, quizzes, sample tests, etc… 

Control Tower Icon

QUESTIONS? CHECK F.A.Q.

In aviation, the only stupid question is the one you didn’t ask. And there is a big chance yours has already been answered in the FAQ. Check it out!

Brain Icon

ARE YOU WIRED FOR FLYING?

Flying an aircraft is usually not the most difficult part of the “problem” and it takes a certain mindset to deal with the other aspects of a flight. Find out wether…

THEY DID IT!

Meet those who refused to be the passengers of their lives, and learn about their experience.

QUICK FACTS

Aviation is a world of serious numbers.
Here are my own, and they count as much as the other ones.

0
YEARS OF
WISDOM
0
YEARS OF
SKY FUN
0
AMAZING
STUDENTS
0
HOURS OF
PURE EXCITEMENT

Grow some wings,
Come fly with me!

Vancouver Island Weather

METARs and TAFs.
VICTORIA INTL (CYYJ)
METAR:

CYYJ 230134Z 13007KT 3/8SM R09/5500VP6000FT/U FG BKN030 11/11 A3021 RMK FG5SC2 SLP230

TAF:

TAF AMD CYYJ 230140Z 2301/2324 13010KT P6SM SCT050 TEMPO 2301/2309 1/4SM FG BKN030 FM230900 VRB03KT 1/4SM FG BKN015 TEMPO 2309/2317 3SM BR SCT015 FM231700 10005KT P6SM SCT140 RMK NXT FCST BY 230600Z

NANAIMO (CYCD)
METAR:

CYCD 230100Z 16007KT 15SM SCT040 19/11 A3019 RMK SC3 SLP225 DENSITY ALT 300FT

TAF:

TAF CYCD 221741Z 2218/2304 VRB03KT P6SM SCT050 TEMPO 2218/2220 BKN050 BECMG 2218/2220 36008KT FM230100 02005KT P6SM BKN050 RMK NXT FCST BY 230000Z

LONG BEACH (CYAZ)
METAR:

CYAZ 230100Z 28008KT 15SM SCT250 15/12 A3021 RMK CI3 LAST STFD OBS/NXT 231300UTC SLP230

TAF:

TAF AMD TAF AMD CYAZ 222107Z 2221/2301 29008KT P6SM BKN015 TEMPO 2221/2222 SCT015 FM222200 29012G22KT P6SM FEW015 RMK NXT FCST WILL BE ISSUED AT 231445Z

For more in-depth weather information, please, check Collaborative Flight Planning Service

For all Runway conditions in CYYJ, please check

IIDS Web View

Windy’s Forecast & Observations